Regional Weather Roundup
Issued by NWS

Home | Current Version | Previous Version | Text Only | Print | Product List | Glossary Off
Versions: 1 2 3 4 5 6 7 8 9 10 11 12 13 14 15 16 17 18 19 20 21 22 23 24 25 26 27 28 29 30 31 32 33 34 35 36 37 38 39 40 41 42 43 44 45 46 47 48 49 50

000
ASUS43 KMPX 251310
RWRMN
WEATHER ROUNDUP FOR MINNESOTA
NATIONAL WEATHER SERVICE TWIN CITIES/CHANHASSEN MN
800 AM CDT SUN SEP 25 2016


NOTE: "FAIR" INDICATES FEW OR NO CLOUDS BELOW 12,000 FEET WITH NO
SIGNIFICANT WEATHER AND/OR OBSTRUCTIONS TO VISIBILITY. N/A MEANS
CURRENT SKY AND/OR WEATHER CONDITIONS ARE NOT AVAILABLE.

MNZ060>063-068>070-251400-
   Twin Cities Metro

CITY           SKY/WX    TMP DP  RH WIND       PRES   REMARKS
TWIN CITIES    LGT RAIN  63  61  93 SW7       29.89R
ST PAUL        RAIN      64  62  93 W13       29.89R FOG
CRYSTAL        LGT RAIN  63  59  87 SW9       29.87R
BLAINE         DRIZZLE   64  64 100 SW8       29.88R
LAKEVILLE      DRIZZLE   63  63 100 SW6       29.91R
EDEN PRAIRIE   LGT RAIN  63  60  90 SW7       29.89R FOG
LAKEVILLE      DRIZZLE   63  63 100 SW6       29.91R
SOUTH ST PAUL  RAIN      65  63  95 W15       29.90R
LAKE ELMO      LGT RAIN  68  66  94 S8        29.88F
$$
MNZ001>005-007-008-013>017-022>024-027-028-251400-
   Northwest Minnesota

CITY           SKY/WX    TMP DP  RH WIND       PRES   REMARKS
BEMIDJI        CLOUDY    61  54  79 S6        29.74S
HALLOCK        CLEAR     55  54  94 S8        29.66S
ROSEAU         CLOUDY    63  57  82 S8        29.68S
WARROAD        CLOUDY    63  59  88 SE8       29.67F
THIEF RVR FALL CLEAR     53  49  86 S16G22    29.72F
CROOKSTON      CLEAR     52  48  87 SW15      29.72F
FOSSTON        PTCLDY    52  48  87 S10       29.75S
DETROIT LAKES  MOCLDY    54  48  82 SW14      29.79R
MOORHEAD       CLOUDY    54  48  82 S12       29.77S
PARK RAPIDS    MOCLDY    59  51  75 SW14      29.77F
MAHNOMEN       FAIR      51  48  90 S9        29.76R
$$
MNZ006-009>011-018-025>026-251400-
   North Central Minnesota

CITY           SKY/WX    TMP DP  RH WIND       PRES   REMARKS
BAUDETTE       LGT RAIN  63  62  97 SE10      29.70F
FLAG ISLAND    CLOUDY    63  61  94 S12       29.68F
INTL FALLS     RAIN      62  61  96 SE8       29.74F FOG
WASKISH        PTCLDY    64  63  94 SE5       29.72F
BIG FORK       CLOUDY    64  63  94 S7        29.76F
LONGVILLE      LGT RAIN  64  64 100 S8        29.78S
GRAND RAPIDS   LGT RAIN  64  61  90 S10       29.80F
ORR            RAIN      63  59  88 SE7       29.77F
COOK           RAIN      63  61  94 SE13      29.81F
WALKER         CLOUDY    62  60  93 SW9       29.76S
$$
MNZ012-019>021-037-251400-
   Northeast Minnesota

CITY           SKY/WX    TMP DP  RH WIND       PRES   REMARKS
DULUTH         LGT RAIN  62  62 100 SE14      29.85F FOG
ELY            LGT RAIN  59  57  94 SE9G17    29.85F
HIBBING        LGT RAIN  61  61 100 SE12      29.80F VSB 3/4
EVELETH        RAIN      61  60  97 SE8G16    29.84F
DULUTH HARBOR  LGT RAIN  64  61  88 CALM      29.85F
TWO HARBORS    DRIZZLE   63  57  82 E9        29.86F
SILVER BAY     DRIZZLE   61  59  94 E8        29.88F
GRAND MARAIS     N/A     60  59  96 NE6       29.93F
G MARAIS ARPRT DRIZZLE   55  52  88 SE3       29.95F
$$
MNZ029>031-032-039>041-046>048-054>057-064-251400-
   West Central Minnesota

CITY           SKY/WX    TMP DP  RH WIND       PRES   REMARKS
FERGUS FALLS   CLOUDY    52  48  87 S13       29.82F
MORRIS         CLOUDY    54  50  87 S8        29.84F
ALEXANDRIA     CLOUDY    54  49  83 SW14      29.86R
ELBOW LAKE     FAIR      51  48  92 SW10      29.83S
GLENWOOD       CLOUDY    54  48  82 S12       29.87R
BENSON         PTCLDY    54  46  76 SW9       29.87S
MADISON          N/A     57  54  88 SW7       29.89R
WILLMAR        FAIR      55  52  88 SW7       29.90S
$$
MNZ033>034-036-042>043-049>051-058-059-251400-
   Central Minnesota

CITY           SKY/WX    TMP DP  RH WIND       PRES   REMARKS
ST CLOUD       LGT RAIN  59  56  89 SW8       29.86R
SAUK CENTRE    FAIR      55  50  84 SW10      29.86R
PAYNESVILLE    CLOUDY    56  53  91 SW9       29.89R
AITKIN         MIX PCPN  66  61  82 S7        29.81R
PINE RIVER     PTCLDY    61  55  82 SW5       29.83R
BRAINERD       LGT RAIN  60  52  74 SW9       29.82S
STAPLES        CLOUDY    55  52  88 S8        29.81F
LONG PRAIRIE   FAIR      54  50  87 S10G20    29.85S
LITTLE FALLS   CLOUDY    57  52  82 SW5       29.86R
LITCHFIELD     CLOUDY    59  54  82 W9G17     29.90R
BUFFALO        LGT RAIN  58  51  79 W9        29.89S
MAPLE LAKE     LGT RAIN  58  55  89 CALM      29.89R
HUTCHINSON     CLOUDY    58  53  83 SW9       29.92R
$$
MNZ037-044-045-052-053-251400-
   East Central Minnesota

CITY           SKY/WX    TMP DP  RH WIND       PRES   REMARKS
PRINCETON      LGT RAIN  64  63  94 S6        29.85F
MORA           LGT RAIN  59  55  88 SW8G18    29.87S
CAMBRIDGE      LGT RAIN  64  61  88 S5        29.84F
MOOSE LAKE     RAIN      64  63  94 S6        29.81F
HINCKLEY       HVY RAIN  64  64 100 SW8       29.85S
CLOQUET        LGT RAIN  63  61  94 SE7       29.84F
MCGREGOR       CLOUDY    63  63 100 S8        29.83S
$$
MNZ071>073-080-081-089-090-097-098-251400-
   Southwest Minnesota

CITY           SKY/WX    TMP DP  RH WIND       PRES   REMARKS
MONTEVIDEO     PTCLDY    54  52  94 W8        29.91S
GRANITE FALLS  PTCLDY    54  50  86 SW9       29.92S
CANBY          CLEAR     56  50  79 SW15G24   29.91R
MARSHALL       CLEAR     54  48  80 SW10      29.92S
REDWOOD FALLS  CLOUDY    56  49  77 SW10      29.92S
OLIVIA         CLOUDY    54  50  87 SW8       29.91S
PIPESTONE      CLEAR     52  46  82 W10       29.96S
WINDOM         CLOUDY    54  48  82 SW8       29.97R
WORTHINGTON    CLOUDY    53  48  83 SW10      29.99R
JACKSON        CLOUDY    55  46  71 W9        29.99R
TRACY          CLEAR     54  50  86 SW10      29.95R
SLAYTON        CLEAR     52  46  82 SW14G20   29.97R
$$
MNZ065>067-074>077-082>085-091>093-251400-
   South Central Minnesota

CITY           SKY/WX    TMP DP  RH WIND       PRES   REMARKS
MANKATO        CLOUDY    58  53  84 W9        29.95R
NEW ULM        CLOUDY    57  54  88 W9        29.94R
ST JAMES       CLOUDY    57  52  82 SW10G16   29.97R
FAIRMONT       PTCLDY    58  51  78 W13       29.98R
GLENCOE        CLOUDY    57  57 100 SW6       29.91R
FARIBAULT      LGT RAIN  63  63 100 W6        29.93R
OWATONNA       RAIN      64  63  94 SW8       29.93R
WASECA         CLOUDY    63  59  88 SW7       29.94S
ALBERT LEA     RAIN      63  61  94 W6        29.96R
$$
MNZ078>079-086>088-094>096-251400-
   Southeast Minnesota

CITY           SKY/WX    TMP DP  RH WIND       PRES   REMARKS
ROCHESTER      CLOUDY    68  67  96 S13G20    29.95S FOG
RED WING       LGT RAIN  70  66  88 SE5       29.89S
DODGE CENTER   RAIN      68  66  94 S10       29.93S
WINONA         DRIZZLE   70  64  83 SE3       29.94R
AUSTIN         CLOUDY    68  64  88 S9        29.94S FOG
PRESTON        CLOUDY    66  64  94 S10       29.96S FOG
$$
ABBREVIATIONS USED IN REMARKS
   TC - TEMPERATURES IN CELSIUS
  WCI - WIND CHILL INDEX
   HX - HEAT INDEX
  VSB - VISIBILITY
$$



USA.gov is the U.S. government's official web portal to all federal, state and local government web resources and services.